Flag for Germany Weather past 2 weeks in Neuwied, Rhineland-Palatinate, Germany

Now
43 °F

Passing clouds.


Feels Like: 39 °F
Forecast: 39 / 55 °F
Wind: 7 mph from South

Location: Buechel


UV Index: 3 (Moderate)

Visibility: N/A


Pressure: 30.24 "Hg

Humidity: 61%

Dew point: 30 °F

Location of NeuwiedLocation

Historic Weather in Neuwied

°F

Neuwied temperature yesterday

Maximum temperature yesterday: 52 °F (at 3:20 PM)
Minimum temperature yesterday: 34 °F (at 3:20 AM)
Average temperature yesterday: 43 °F

Past Weeks' High & Low Weather Summary

 TemperatureHumidityPressure
High68 °F (Apr 3, 2:20 PM)100% (Apr 6, 4:20 AM)30.39 "Hg (Apr 6, 4:20 AM)
Low34 °F (Apr 16, 3:20 AM)32% (Apr 3, 3:20 PM)29.65 "Hg (Apr 3, 3:20 AM)
Average51 °F67%30.04 "Hg
* Reported Apr 2 8:20 AM — Apr 17 8:20 AM, Neuwied, Weather by CustomWeather, © 2014

Note: Actual official high and low records may vary slightly from our data, if they occured in-between our weather recording intervals... More about our weather records

Advertising

Historic Weather Conditions — Data for Previous 24 hours

 ConditionsComfort  
Time TempWeatherWind HumidityBarometerVisibility
8:20 AM
Apr 17
41 °FPassing clouds.5 mph61%30.24 "HgN/A
7:20 AM39 °FPassing clouds.3 mph65%30.24 "HgN/A
6:20 AM39 °FPassing clouds.3 mph61%30.24 "HgN/A
5:20 AM39 °FPassing clouds.3 mph65%30.27 "HgN/A
4:20 AM39 °FPassing clouds.5 mph65%30.27 "HgN/A
3:20 AM41 °FQuite cool.5 mph61%30.27 "HgN/A
2:20 AM41 °FQuite cool.5 mph61%30.30 "HgN/A
1:20 AM43 °FQuite cool.5 mph57%30.30 "HgN/A
12:20 AM43 °FQuite cool.5 mph57%30.30 "HgN/A
11:20 PM
Apr 16
45 °FQuite cool.3 mph53%30.33 "HgN/A
10:20 PM45 °FQuite cool.2 mph53%30.33 "HgN/A
10:01 PM45 °FQuite cool.3 mph53%30.33 "HgN/A
9:20 PM45 °FPassing clouds.5 mph53%30.33 "HgN/A
8:20 PM46 °FPassing clouds.6 mph53%30.33 "HgN/A
7:20 PM52 °FPassing clouds.7 mph41%30.33 "HgN/A
6:20 PM52 °FPassing clouds.7 mph41%30.33 "HgN/A
5:20 PM52 °FPassing clouds.10 mph41%30.33 "HgN/A
4:20 PM52 °FPassing clouds.12 mph41%30.33 "HgN/A
3:20 PM52 °FPassing clouds.8 mph44%30.36 "HgN/A
2:20 PM48 °FPassing clouds.7 mph46%30.36 "HgN/A
1:20 PM48 °FPassing clouds.8 mph46%30.36 "HgN/A
12:20 PM46 °FPassing clouds.8 mph53%30.39 "HgN/A
11:20 AM45 °FPassing clouds.8 mph61%30.39 "HgN/A
10:20 AM41 °FPassing clouds.9 mph70%30.39 "HgN/A
9:20 AM39 °FScattered clouds.8 mph75%30.39 "HgN/A
Weather by CustomWeather, © 2014

See weather overview